Escanaba, MI

1:17 PM EDT on September 26, 2017 (GMT -0400)
Delta County

Weather History for KESC - January, 2014

Change the Weather History Date:

Thursday, January 9, 2014

  Actual Average Record
Temperature  
Mean Temperature -2 °F -  
Max Temperature 15 °F 23 °F 53 °F (2002)
Min Temperature -18 °F 7 °F -18 °F (2014)
Degree Days  
Heating Degree Days 66    
Moisture  
Dew Point -5 °F    
Average Humidity 76    
Maximum Humidity 100    
Minimum Humidity 56    
Precipitation  
Precipitation 0.00 in - - ()
Sea Level Pressure  
Sea Level Pressure 30.32 in    
Wind  
Wind Speed 5 mph (SW)    
Max Wind Speed 12 mph    
Max Gust Speed -    
Visibility 10 miles    
Events      
Averages and records for this station are not official NWS values.
T = Trace of Precipitation, MM = Missing Value Source: NWS Daily Summary

Daily Weather History Graph

Daily Weather History Graph

Search for Another Location

Airport or City:

Trip Planner

Search our weather history database for the weather conditions in past years. The results will help you decide how hot, cold, wet, or windy it might be!

Date:

Astronomy

Jan. 09, 2014 Rise Set
Actual Time 8:28 AM EST 5:23 PM EST
Civil Twilight 7:54 AM EST 5:57 PM EST
Nautical Twilight 7:17 AM EST 6:34 PM EST
Astronomical Twilight 6:41 AM EST 7:10 PM EST
Moon 12:56 PM EST (1/9) 2:27 AM EST (1/9)
Length of Visible Light 10h 02m
Length of Day
8h 55m
Waxing Gibbous, 66% of the Moon is Illuminated
Jan 9
Waxing Gibbous
Jan 15
Full
Jan 24
Last Quarter
Jan 30
New
Feb 6
First Quarter

Hourly Weather History & Observations

Time (EST) Temp. Windchill Dew Point Humidity Pressure Visibility Wind Dir Wind Speed Gust Speed Precip Events Conditions
12:15 AM -5.8 °F -22.4 °F -9.4 °F 84% 30.43 in 10.0 mi West 9.2 mph - N/A   Clear
12:35 AM -4.0 °F -19.0 °F -11.2 °F 71% 30.43 in 10.0 mi WNW 8.1 mph - N/A   Clear
12:55 AM -5.8 °F -16.7 °F -9.4 °F 84% 30.43 in 10.0 mi West 4.6 mph - N/A   Clear
1:15 AM -4.0 °F -16.3 °F -9.4 °F 78% 30.43 in 10.0 mi WNW 5.8 mph - N/A   Clear
1:35 AM -4.0 °F -14.6 °F -11.2 °F 71% 30.43 in 10.0 mi WNW 4.6 mph - N/A   Clear
1:55 AM -5.8 °F -16.7 °F -11.2 °F 77% 30.42 in 10.0 mi WNW 4.6 mph - N/A   Clear
2:15 AM -5.8 °F -14.5 °F - N/A% 30.42 in 10.0 mi WNW 3.5 mph - N/A   Clear
2:35 AM -5.8 °F -16.7 °F -9.4 °F 84% 30.43 in 10.0 mi West 4.6 mph - N/A   Clear
2:55 AM -5.8 °F -18.4 °F -11.2 °F 77% 30.43 in 10.0 mi West 5.8 mph - N/A   Clear
3:15 AM -5.8 °F -18.4 °F -7.6 °F 92% 30.43 in 10.0 mi WNW 5.8 mph - N/A   Clear
3:35 AM -7.6 °F -20.6 °F -11.2 °F 84% 30.44 in 10.0 mi West 5.8 mph - N/A   Clear
3:55 AM -5.8 °F -14.5 °F -7.6 °F 92% 30.43 in 10.0 mi West 3.5 mph - N/A   Clear
4:15 AM -5.8 °F -14.5 °F -11.2 °F 77% 30.43 in 10.0 mi WNW 3.5 mph - N/A   Clear
4:35 AM -9.4 °F -18.6 °F -18.4 °F 65% 30.43 in 10.0 mi WNW 3.5 mph - N/A   Clear
4:55 AM -13.0 °F - -14.8 °F 92% 30.43 in 10.0 mi Calm Calm - N/A   Clear
5:15 AM -13.0 °F - -23.8 °F 59% 30.43 in 10.0 mi Calm Calm - N/A   Clear
5:35 AM -11.2 °F - -11.2 °F 100% 30.43 in 10.0 mi Calm Calm - N/A   Clear
5:55 AM -13.0 °F - -22.0 °F 64% 30.43 in 10.0 mi Calm Calm - N/A   Clear
6:15 AM -13.0 °F - -18.4 °F 77% 30.42 in 10.0 mi Calm Calm - N/A   Clear
6:35 AM -16.6 °F - -18.4 °F 92% 30.42 in 10.0 mi Calm Calm - N/A   Clear
6:55 AM -13.0 °F - -16.6 °F 84% 30.43 in 10.0 mi Calm Calm - N/A   Clear
7:15 AM -16.6 °F -31.3 °F -18.4 °F 92% 30.42 in 10.0 mi West 5.8 mph - N/A   Clear
7:35 AM -13.0 °F - -14.8 °F 92% 30.42 in 10.0 mi Calm Calm - N/A   Clear
7:55 AM -18.4 °F - -27.4 °F 63% 30.41 in 10.0 mi Calm Calm - N/A   Clear
8:15 AM -18.4 °F - -27.4 °F 63% 30.41 in 10.0 mi Calm Calm - N/A   Clear
8:35 AM -16.6 °F -26.8 °F -16.6 °F 100% 30.41 in 10.0 mi West 3.5 mph - N/A   Clear
8:55 AM -16.6 °F - -18.4 °F 92% 30.41 in 8.0 mi Calm Calm - N/A   Clear
9:15 AM -16.6 °F - -23.8 °F 70% 30.42 in 10.0 mi Calm Calm - N/A   Clear
9:35 AM -13.0 °F -22.7 °F -13.0 °F 100% 30.42 in 10.0 mi West 3.5 mph - N/A   Clear
9:55 AM -7.6 °F -18.8 °F -9.4 °F 92% 30.43 in 10.0 mi West 4.6 mph - N/A   Clear
10:15 AM -5.8 °F - -11.2 °F 77% 30.42 in 10.0 mi Calm Calm - N/A   Clear
10:35 AM -2.2 °F -12.5 °F -4.0 °F 92% 30.42 in 10.0 mi SSW 4.6 mph - N/A   Clear
10:55 AM 1.4 °F - -7.6 °F 66% 30.41 in 10.0 mi Calm Calm - N/A   Clear
11:15 AM 3.2 °F -6.2 °F -2.2 °F 78% 30.41 in 10.0 mi SW 4.6 mph - N/A   Clear
11:35 AM 5.0 °F -10.0 °F -5.8 °F 61% 30.39 in 9.0 mi SW 10.4 mph - N/A   Clear
11:55 AM 6.8 °F -6.9 °F -5.8 °F 56% 30.37 in 10.0 mi SW 9.2 mph - N/A   Clear
12:15 PM 6.8 °F -6.9 °F -4.0 °F 61% 30.37 in 10.0 mi South 9.2 mph - N/A   Clear
12:35 PM 6.8 °F -5.9 °F -2.2 °F 67% 30.34 in 10.0 mi South 8.1 mph - N/A   Clear
12:55 PM 6.8 °F -6.9 °F -2.2 °F 67% 30.33 in 10.0 mi SSW 9.2 mph - N/A   Clear
1:15 PM 8.6 °F -2.6 °F -0.4 °F 67% 30.31 in 10.0 mi South 6.9 mph - N/A   Clear
1:35 PM 10.4 °F -2.4 °F -0.4 °F 62% 30.29 in 10.0 mi SSW 9.2 mph - N/A   Clear
1:55 PM 12.2 °F -1.0 °F 1.4 °F 62% 30.28 in 10.0 mi South 10.4 mph - N/A   Clear
2:15 PM 12.2 °F 0.7 °F 1.4 °F 62% 30.27 in 10.0 mi South 8.1 mph - N/A   Clear
2:35 PM 12.2 °F -1.8 °F 1.4 °F 62% 30.26 in 10.0 mi South 11.5 mph - N/A   Clear
2:55 PM 12.2 °F -0.2 °F 3.2 °F 67% 30.26 in 10.0 mi SSW 9.2 mph - N/A   Clear
3:35 PM 12.2 °F 1.7 °F 3.2 °F 67% 30.25 in 10.0 mi SSW 6.9 mph - N/A   Clear
3:55 PM 14.0 °F 2.9 °F 3.2 °F 62% 30.25 in 10.0 mi SSW 8.1 mph - N/A   Clear
4:15 PM 14.0 °F 8.2 °F 3.2 °F 62% 30.25 in 10.0 mi SSW 3.5 mph - N/A   Clear
4:35 PM 14.0 °F 2.9 °F 3.2 °F 62% 30.25 in 10.0 mi South 8.1 mph - N/A   Clear
4:55 PM 12.2 °F 1.7 °F 5.0 °F 73% 30.25 in 10.0 mi South 6.9 mph - N/A   Clear
5:15 PM 12.2 °F 2.9 °F 3.2 °F 67% 30.24 in 10.0 mi South 5.8 mph - N/A   Clear
6:15 PM 12.2 °F 6.1 °F 6.8 °F 79% 30.22 in 10.0 mi South 3.5 mph - N/A   Clear
6:35 PM 10.4 °F 4.0 °F 6.8 °F 85% 30.21 in 10.0 mi SSW 3.5 mph - N/A   Scattered Clouds
6:55 PM 10.4 °F 2.2 °F 3.2 °F 73% 30.21 in 10.0 mi SSW 4.6 mph - N/A   Overcast
7:15 PM 12.2 °F - 5.0 °F 73% 30.21 in 10.0 mi Calm Calm - N/A   Overcast
7:35 PM 12.2 °F - 6.8 °F 79% 30.20 in 10.0 mi Calm Calm - N/A   Overcast
7:55 PM 12.2 °F - 5.0 °F 73% 30.20 in 10.0 mi Calm Calm - N/A   Overcast
8:15 PM 12.2 °F - 8.6 °F 85% 30.19 in 10.0 mi Calm Calm - N/A   Overcast
8:35 PM 12.2 °F 6.1 °F 10.4 °F 92% 30.18 in 10.0 mi West 3.5 mph - N/A   Overcast
8:55 PM 14.0 °F - 8.6 °F 79% 30.17 in 10.0 mi Calm Calm - N/A   Overcast
9:15 PM 14.0 °F - 6.8 °F 73% 30.17 in 10.0 mi Calm Calm - N/A   Overcast
9:35 PM 14.0 °F - 8.6 °F 79% 30.16 in 10.0 mi Calm Calm - N/A   Overcast
9:55 PM 15.8 °F - 8.6 °F 73% 30.16 in 10.0 mi Calm Calm - N/A   Overcast
10:15 PM 15.8 °F - 6.8 °F 68% 30.15 in 10.0 mi Calm Calm - N/A   Overcast
10:35 PM 15.8 °F - 8.6 °F 73% 30.14 in 10.0 mi Calm Calm - N/A   Mostly Cloudy
10:55 PM 14.0 °F 6.5 °F 6.8 °F 73% 30.12 in 10.0 mi SW 4.6 mph - N/A   Partly Cloudy
11:15 PM 12.2 °F 6.1 °F 6.8 °F 79% 30.12 in 10.0 mi SW 3.5 mph - N/A   Scattered Clouds
11:35 PM 12.2 °F 6.1 °F 6.8 °F 79% 30.11 in 10.0 mi WSW 3.5 mph - N/A   Scattered Clouds
11:55 PM 12.2 °F 6.1 °F 5.0 °F 73% 30.11 in 10.0 mi South 3.5 mph - N/A   Mostly Cloudy